Weather History for KMTH - March, 2013

Change the Weather History Date:

Monday, March 25, 2013

  Actual Average Record
Temperature  
Mean Temperature 73 °F 75 °F  
Max Temperature 81 °F 81 °F - ()
Min Temperature 64 °F 69 °F - ()
Degree Days  
Heating Degree Days 0 0  
Month to date heating degree days 19 0  
Since 1 July heating degree days 32 75  
Cooling Degree Days 8 10  
Month to date cooling degree days 159 220  
Year to date cooling degree days 754 602  
Growing Degree Days 22 (Base 50)    
Moisture  
Dew Point 67 °F    
Average Humidity 63    
Maximum Humidity 87    
Minimum Humidity 38    
Precipitation  
Precipitation 0.38 in 0.07 in - ()
Month to date precipitation 1.38 1.87  
Year to date precipitation 3.76 5.69  
Snow  
Snow 0.00 in - - ()
Month to date snowfall 0.0  
Since 1 July snowfall 0.0  
Snow Depth 0.00 in    
Sea Level Pressure  
Sea Level Pressure 29.86 in    
Wind  
Wind Speed 9 mph (NW)    
Max Wind Speed 21 mph    
Max Gust Speed 30 mph    
Visibility 8 miles    
Events Rain , Thunderstorm    
T = Trace of Precipitation, MM = Missing Value Source: NWS Daily Summary

Daily Weather History Graph

Daily Weather History Graph

Search for Another Location

Airport or City:

Trip Planner

Search our weather history database for the weather conditions in past years. The results will help you decide how hot, cold, wet, or windy it might be!

Date:

Astronomy

Mar. 25, 2013 Rise Set
Actual Time 7:22 AM EDT 7:37 PM EDT
Civil Twilight 7:00 AM EDT 8:00 PM EDT
Nautical Twilight 6:33 AM EDT 8:27 PM EDT
Astronomical Twilight 6:06 AM EDT 8:53 PM EDT
Moon 6:13 PM EDT (3/25) 5:56 AM EDT (3/25)
Length of Visible Light 13h 00m
Length of Day
12h 14m
Waxing Gibbous, 96% of the Moon is Illuminated
Mar 25
Waxing Gibbous
Mar 27
Full
Apr 3
Last Quarter
Apr 10
New
Apr 18
First Quarter

Hourly Weather History & Observations

Time (EDT) Temp. Heat Index Dew Point Humidity Pressure Visibility Wind Dir Wind Speed Gust Speed Precip Events Conditions
12:43 AM 78.8 °F - 73.4 °F 83% 29.81 in 9.0 mi Calm Calm - N/A   Mostly Cloudy
12:53 AM 78.1 °F - 72.0 °F 81% 29.81 in 10.0 mi Calm Calm - N/A   Overcast
1:24 AM 78.8 °F - 71.6 °F 78% 29.81 in 9.0 mi Calm Calm - N/A   Scattered Clouds
1:53 AM 78.1 °F - 72.0 °F 81% 29.81 in 9.0 mi SSW 3.5 mph - N/A   Mostly Cloudy
2:53 AM 78.1 °F - 72.0 °F 81% 29.79 in 10.0 mi SW 4.6 mph - N/A   Mostly Cloudy
3:53 AM 78.1 °F - 71.1 °F 79% 29.79 in 10.0 mi SSW 3.5 mph - N/A   Overcast
4:01 AM 78.8 °F - 71.6 °F 78% 29.78 in 10.0 mi Variable 4.6 mph - N/A   Mostly Cloudy
4:53 AM 78.1 °F - 71.1 °F 79% 29.78 in 9.0 mi SW 5.8 mph - N/A   Overcast
5:07 AM 78.8 °F - 71.6 °F 78% 29.78 in 9.0 mi SW 8.1 mph - N/A   Overcast
5:53 AM 78.1 °F - 72.0 °F 81% 29.78 in 9.0 mi SW 6.9 mph - N/A   Partly Cloudy
6:53 AM 77.0 °F - 72.0 °F 84% 29.79 in 9.0 mi SW 5.8 mph - N/A   Clear
7:06 AM 77.0 °F - 71.6 °F 83% 29.80 in 9.0 mi SW 5.8 mph - N/A Thunderstorm Scattered Clouds
7:40 AM 78.8 °F - 71.6 °F 78% 29.82 in 8.0 mi SW 5.8 mph - N/A   Mostly Cloudy
7:53 AM 78.1 °F - 72.0 °F 81% 29.83 in 8.0 mi SW 5.8 mph - N/A Thunderstorm Overcast
8:31 AM 75.2 °F - 71.6 °F 89% 29.85 in 1.8 mi WNW 9.2 mph - 0.05 in Rain , Thunderstorm Rain
8:35 AM 73.4 °F - 69.8 °F 88% 29.85 in 1.8 mi North 5.8 mph - 0.07 in Rain Heavy Rain
8:42 AM 73.4 °F - 69.8 °F 88% 29.86 in 3.0 mi NNW 4.6 mph - 0.09 in Rain Light Rain
8:53 AM 73.9 °F - 70.0 °F 87% 29.86 in 2.0 mi Calm Calm - 0.12 in Rain Light Rain
8:56 AM 73.4 °F - 69.8 °F 88% 29.86 in 3.0 mi Calm Calm - 0.00 in Rain Light Rain
9:04 AM 73.4 °F - 71.6 °F 94% 29.86 in 6.0 mi Calm Calm - 0.00 in   Mostly Cloudy
9:53 AM 77.0 °F - 70.0 °F 79% 29.88 in 9.0 mi NNW 3.5 mph - 0.00 in   Overcast
10:53 AM 80.1 °F 83.6 °F 71.1 °F 74% 29.89 in 10.0 mi North 5.8 mph - N/A   Mostly Cloudy
11:53 AM 80.1 °F 82.9 °F 69.1 °F 69% 29.90 in 8.0 mi NW 10.4 mph - N/A   Mostly Cloudy
12:53 PM 78.1 °F - 66.9 °F 68% 29.91 in 9.0 mi NW 12.7 mph 18.4 mph N/A   Mostly Cloudy
1:53 PM 79.0 °F - 66.9 °F 66% 29.88 in 9.0 mi NNW 12.7 mph 19.6 mph N/A   Mostly Cloudy
2:53 PM 75.9 °F - 64.9 °F 69% 29.88 in 10.0 mi NW 10.4 mph 18.4 mph N/A   Overcast
3:53 PM 75.0 °F - 61.0 °F 62% 29.86 in 10.0 mi NNW 13.8 mph 24.2 mph N/A   Mostly Cloudy
4:53 PM 73.0 °F - 62.1 °F 68% 29.87 in 10.0 mi NW 13.8 mph 19.6 mph N/A   Overcast
5:08 PM 69.8 °F - 62.6 °F 78% 29.88 in 1.8 mi NW 10.4 mph 20.7 mph 0.06 in Rain Heavy Rain
5:16 PM 69.8 °F - 62.6 °F 78% 29.88 in 3.0 mi NW 11.5 mph - 0.07 in Rain Light Rain
5:53 PM 71.1 °F - 63.0 °F 75% 29.88 in 10.0 mi NW 11.5 mph 17.3 mph 0.07 in   Overcast
6:29 PM 69.8 °F - 62.6 °F 78% 29.91 in 1.8 mi NW 11.5 mph 20.7 mph 0.09 in Rain Heavy Rain
6:43 PM 64.4 °F - 53.6 °F 68% 29.90 in 3.0 mi North 5.8 mph 19.6 mph 0.17 in Rain Light Rain
6:53 PM 69.1 °F - 62.1 °F 78% 29.90 in 6.0 mi NW 12.7 mph 19.6 mph 0.18 in Rain Rain
7:09 PM 69.8 °F - 62.6 °F 78% 29.91 in 10.0 mi NNW 16.1 mph 25.3 mph 0.00 in   Mostly Cloudy
7:53 PM 70.0 °F - 60.1 °F 71% 29.91 in 10.0 mi NNW 15.0 mph 28.8 mph 0.00 in   Mostly Cloudy
8:53 PM 71.1 °F - 60.1 °F 68% 29.93 in 10.0 mi NNW 15.0 mph 20.7 mph N/A   Overcast
9:53 PM 72.0 °F - 61.0 °F 68% 29.96 in 10.0 mi North 12.7 mph 21.9 mph 0.01 in   Mostly Cloudy
10:53 PM 73.0 °F - 50.0 °F 44% 29.99 in 10.0 mi North 9.2 mph 20.7 mph N/A   Overcast
11:53 PM 72.0 °F - 44.1 °F 37% 30.03 in 10.0 mi North 8.1 mph 16.1 mph 0.00 in   Overcast